Regional Weather Roundup
Issued by NWS Kansas City/Pleasant Hill, MO

Home | Current Version | Previous Version | Graphics & Text | Print | Product List | Glossary Off
Versions: 1 2 3 4 5 6 7 8 9 10 11 12 13 14 15 16 17 18 19 20 21 22 23 24 25 26 27 28 29 30 31 32 33 34 35 36 37 38 39 40 41 42 43 44 45 46 47 48 49 50

000
ASUS43 KEAX 260010
RWREAX

WEATHER ROUNDUP FOR EASTERN KANSAS AND NORTHWEST MISSOURI
NATIONAL WEATHER SERVICE KANSAS CITY/PLEASANT HILL MO
700 PM CDT MON MAY 25 2015

KSZ040-057-103>105-MOZ028-029-037-043-260100-
...KANSAS CITY METROPOLITAN AREA...

CITY           SKY/WX    TMP DP  RH WIND       PRES   REMARKS
K.C. INTL      PTSUNNY   77  66  68 S13G22    29.80F
6HR MIN TEMP:  74; 6HR MAX TEMP:  80; 6HR PCP: TRACE;

K.C. DOWNTOWN  PTSUNNY   80  63  55 S16       29.80S
6HR MIN TEMP:  75; 6HR MAX TEMP:  83; 6HR PCP: TRACE;

LEES SUMMIT    CLOUDY    78  63  59 S10G21    29.83R
6HR MIN TEMP:  74; 6HR MAX TEMP:  81;

OLATHE - IXD   CLOUDY    77  64  64 S10       29.83R
6HR MIN TEMP:  73; 6HR MAX TEMP:  81;

OLATHE - OJC   CLOUDY    76  65  68 S10       29.82R
6HR MIN TEMP:  73; 6HR MAX TEMP:  80;

LAWRENCE       CLOUDY    78  64  61 S15       29.79S

$$

MOZ001>008-011>017-020>025-030>033-038>040-044>046-053-054-260100-
...NORTHERN AND CENTRAL MISSOURI...

CITY           SKY/WX    TMP DP  RH WIND       PRES   REMARKS
ST. JOSEPH     CLOUDY    78  65  63 S8        29.79S
6HR MIN TEMP:  76; 6HR MAX TEMP:  80;

MOSBY          MOCLDY    79  63  57 S13G18    29.80F
WARRENSBURG    CLOUDY    77  64  65 SE7       29.84R
WHITEMAN AFB   NOT AVBL
CLINTON        CLOUDY    79  70  73 S6        29.85S
SEDALIA        PTSUNNY   80  65  59 S8        29.87F
6HR MIN TEMP:  74; 6HR MAX TEMP:  83;

WARSAW         NOT AVBL
CHILLICOTHE      N/A     79  66  64 S7        29.84R
6HR MIN TEMP:  75; 6HR MAX TEMP:  80;

KIRKSVILLE     MOSUNNY   78  68  71 S6        29.88R
6HR MIN TEMP:  73; 6HR MAX TEMP:  79;


$$

MOZ041-047>049-056>058-063>065-088>090-097-260100-
...EASTERN AND SOUTHERN MISSOURI...

CITY           SKY/WX    TMP DP  RH WIND       PRES   REMARKS
ST. LOUIS INTL MOSUNNY   83  66  56 SE16      29.92R
6HR MIN TEMP:  82; 6HR MAX TEMP:  86;

SPIRIT OF STL  MOSUNNY   81  66  60 SE8G17    29.90R
COLUMBIA       PTSUNNY   79  66  64 S12G18    29.88R
JEFFERSON CITY MOSUNNY   81  64  56 S12       29.86S
ROLLA          MOSUNNY   76  64  66 S9        29.90S
OSAGE BEACH    PTSUNNY   79  64  61 S6        29.88S
SPRINGFIELD    CLOUDY    77  64  64 S10       29.87S
BRANSON        CLOUDY    75  64  69 SE13      29.91S
JOPLIN         CLOUDY    75  66  73 SE5       29.85R
WEST PLAINS    MOSUNNY   76  66  71 SE13      29.96S

$$

IAZ060-094-KSZ022-034>040-054-083-096-NEZ052-066-093-260100-
...KANSAS...SOUTHEAST NEBRASKA AND IOWA...

CITY           SKY/WX    TMP DP  RH WIND       PRES   REMARKS
TOPEKA         CLOUDY    79  65  62 S12       29.78F
6HR MIN TEMP:  74; 6HR MAX TEMP:  81;

MANHATTAN      LGT RAIN  65  59  81 N7        29.78F
EMPORIA        CLOUDY    76  65  68 S15G22    29.78F
CHANUTE        CLOUDY    75  68  78 SE9       29.80F
WICHITA        TSTM      65  59  81 SW6       29.83R
OMAHA          CLOUDY    78  61  55 S13       29.74R
LINCOLN        CLOUDY    75  62  64 S8        29.75R
FALLS CITY     TSTM      63  58  83 MISG      29.83R
LAMONI         PTSUNNY   77  66  68 S8        29.82R
DES MOINES     CLOUDY    77  63  61 S15       29.79R

$$




USA.gov is the U.S. government's official web portal to all federal, state and local government web resources and services.